Regional Weather Roundup
Issued by NWS Grand Forks, ND

Home | Current Version | Previous Version | Text Only | Print | Product List | Glossary Off
Versions: 1 2 3 4 5 6 7 8 9 10 11 12 13 14 15 16 17 18 19 20 21 22 23 24 25 26 27 28 29 30 31 32 33 34 35 36 37 38 39 40 41 42 43 44 45 46 47 48 49 50

000
ASUS43 KFGF 221831
RWRFGF
PRAIRIE TO PINES  WEATHER ROUNDUP
NATIONAL WEATHER SERVICE EASTERN NORTH DAKOTA/GRAND FORKS ND
100 PM CDT FRI MAY 22 2015

 **SATELLITE DATA USED TO AUGMENT SKY COVER AT AUTOMATED STATIONS**
 *****  WEATHER ACROSS EASTERN NORTH DAKOTA  *****

CITY           SKY/WX    TMP DP  RH WIND       PRES   REMARKS
GRAND FORKS    SUNNY     73  37  27 S5        30.16S
6HR MIN TEMP:  43; 6HR MAX TEMP:  73;

GRAND FRKS AFB SUNNY     74  37  26 SW10      30.17R
GRAND FRKS NWS   N/A     70 N/A N/A SW9         N/A
DEVILS LAKE    SUNNY     72  36  26 S8        30.15F
6HR MIN TEMP:  46; 6HR MAX TEMP:  72;

FARGO          SUNNY     71  37  28 S6        30.19S
WAHPETON ARPT  CLEAR     70  32  24 SE6       30.20F
$$

 ***** WEATHER ACROSS CENTRAL AND WESTERN NORTH DAKOTA  *****

CITY           SKY/WX    TMP DP  RH WIND       PRES   REMARKS
BISMARCK       SUNNY     73  37  27 SE9       30.15F
6HR MIN TEMP:  40; 6HR MAX TEMP:  73;

MINOT          SUNNY     74  33  22 S9        30.12F
6HR MIN TEMP:  47; 6HR MAX TEMP:  74;

JAMESTOWN      SUNNY     71  38  29 S12       30.17F
6HR MIN TEMP:  46; 6HR MAX TEMP:  71;

MINOT AFB      SUNNY     77  31  19 SE12      30.10F HAZE
GARRISON         N/A     72  32  23 S8        30.13F
WILLISTON      MOSUNNY   73  32  22 SE12G24   30.09F
6HR MIN TEMP:  41; 6HR MAX TEMP:  75;

DICKINSON      SUNNY     70  31  23 SE22G33   30.09F
6HR MIN TEMP:  42; 6HR MAX TEMP:  70;

HETTINGER      MOSUNNY   67  32  27 SE16G32   30.11F
6HR MIN TEMP:  33; 6HR MAX TEMP:  67;

$$

 *****  OTHER AIRPORT OBSERVATIONS IN OUR AREA  *****

CITY           SKY/WX    TMP DP  RH WIND       PRES   REMARKS
WALHALLA       FAIR      77  36  22 NW9       30.11F
GRAFTON AIRPOR FAIR      73  41  31 S10G16    30.15F
VALLEY CITY AR FAIR      72  36  26 SE13      30.19S
CANDO          FAIR      75  32  20 S12G21    30.15S
CAVALIER APRT  FAIR      75  41  29 SW14      30.12S
GWINNER        NOT AVBL
SHEYENNE NWR     N/A     73  38  27 SE3       29.95
ROLLA            N/A     73  32  21 SW8G18    30.15F
 ***** THE ABOVE OBSERVATIONS ARE NON NWS ARE NOT QUALITY
       CONTROLLED AND MAY MIS-REPORT RAIN FOR SNOW...
$$

  *****  WEATHER ACROSS NORTHERN MINNESOTA  *****

CITY           SKY/WX    TMP DP  RH WIND       PRES   REMARKS
FLAG ISLAND    SUNNY     57  43  58 SE15      30.11F
WARROAD        SUNNY     72  41  33 SW10G17   30.14F
ROSEAU         SUNNY     72  43  35 SW13      30.14F
HALLOCK        SUNNY     73  37  27 SW12      30.13S
THF RVR FALLS  SUNNY     72  34  25 SW7       30.18S
6HR MIN TEMP:  43; 6HR MAX TEMP:  70;

BAUDETTE       SUNNY     70  36  28 SE5       30.15F
6HR MIN TEMP:  40; 6HR MAX TEMP:  70;

WASKISH        SUNNY     66  39  37 CALM      30.18S
CROOKSTON      SUNNY     73  36  25 S7        30.18S
STEPHEN NDAWN    N/A     73  43  33 SW10        N/A
GREENBUSH NDAW   N/A     72  41  33 SW10        N/A
$$
  *****  WEATHER ACROSS CENTRAL AND WEST MINNESOTA  *****

CITY           SKY/WX    TMP DP  RH WIND       PRES   REMARKS
FOSSTON        SUNNY     72  36  26 CALM      30.19S
BEMIDJI        SUNNY     69  33  26 S6        30.18F
PARK RAPIDS    SUNNY     71  31  22 W6        30.20S
6HR MIN TEMP:  42; 6HR MAX TEMP:  71;

ELBOW LAKE     FAIR      69  37  30 SE5       30.21S
6HR MIN TEMP:  47; 6HR MAX TEMP:  69;

WADENA         SUNNY     70  37  30 S5        30.20F
DETROIT LAKES  SUNNY     70  32  24 SW7       30.22S
MOORHEAD       SUNNY     70  37  30 S6        30.21S
FERGUS FALLS   SUNNY     70  34  26 SE3       30.20F
MORRIS MN      SUNNY     72  36  26 SW3       30.20S
STAPLES        SUNNY     70  30  23 S6        30.21S
$$
  *****  WEATHER ELSEWHERE ACROSS MINNESOTA  *****

CITY           SKY/WX    TMP DP  RH WIND       PRES   REMARKS
DULUTH         SUNNY     67  33  28 SW7       30.19F
6HR MIN TEMP:  47; 6HR MAX TEMP:  67;

INTRNTL FALLS  SUNNY     68  28  22 VRB5      30.15F
6HR MIN TEMP:  37; 6HR MAX TEMP:  70;

ELY            SUNNY     64  27  24 S3G12     30.17F
CLOQUET        SUNNY     68  25  19 W5        30.20S
WHEATON        SUNNY     70  32  24 SE7       30.22S
BRAINERD       SUNNY     68  30  24 W6        30.21F
6HR MIN TEMP:  40; 6HR MAX TEMP:  68;

HIBBING        SUNNY     68  29  23 VRB7      30.18F
6HR MIN TEMP:  37; 6HR MAX TEMP:  68; 6HR PCP: TRACE;

ALEXANDRIA     SUNNY     68  34  28 SW7       30.23F
6HR MIN TEMP:  46; 6HR MAX TEMP:  68;

SAINT CLOUD    SUNNY     69  35  28 W7        30.22S
6HR MIN TEMP:  44; 6HR MAX TEMP:  69;

MINNEAPOLIS    SUNNY     70  34  26 VRB3      30.22S
6HR MIN TEMP:  51; 6HR MAX TEMP:  71;

$$

  *****  WEATHER ACROSS SOUTH DAKOTA  *****

CITY           SKY/WX    TMP DP  RH WIND       PRES   REMARKS
SIOUX FALLS    CLOUDY    73  41  31 NE5       30.20S
6HR MIN TEMP:  44; 6HR MAX TEMP:  74;

BROOKINGS      SUNNY     72  36  26 CALM      30.20F
WATERTOWN      SUNNY     72  37  28 VRB5      30.20S
6HR MIN TEMP:  42; 6HR MAX TEMP:  72;

HURON          SUNNY     73  38  27 SE6       30.18S
6HR MIN TEMP:  45; 6HR MAX TEMP:  73;

SISSETON         N/A     72  29  20 SE7       30.20R
ABERDEEN       SUNNY     74  38  27 VRB7      30.17F
6HR MIN TEMP:  49; 6HR MAX TEMP:  75;

MITCHELL       MOSUNNY   73  39  29 S8        30.19S
PIERRE         PTSUNNY   72  38  29 SE18      30.13F
6HR MIN TEMP:  42; 6HR MAX TEMP:  72;

MOBRIDGE       SUNNY     74  35  24 SE17      30.12F
RAPID CITY     CLOUDY    58  45  62 S16G22    30.09F
6HR MIN TEMP:  47; 6HR MAX TEMP:  59;

$$

  *****  SOME WEATHER IN NEARBY STATES *****

CITY           SKY/WX    TMP DP  RH WIND       PRES   REMARKS
GLASGOW MT     SUNNY     72  36  26 E18G31    30.01F
6HR MIN TEMP:  45; 6HR MAX TEMP:  72;

GREAT FALLS MT SUNNY     66  41  40 NW6       29.95S
6HR MIN TEMP:  41; 6HR MAX TEMP:  66;

CHEYENNE WY    LGT RAIN  44  42  93 SE16      30.04S FOG
6HR MIN TEMP:  42; 6HR MAX TEMP:  45; 6HR PCP:  0.37;

SCOTTSBLUFF NE LGT RAIN  49  50 100 SE16      30.07F
6HR MIN TEMP:  48; 6HR MAX TEMP:  50; 6HR PCP:  0.09;

OMAHA NE       CLOUDY    68  44  42 SE5       30.23S
6HR MIN TEMP:  50; 6HR MAX TEMP:  69;

DES MOINES IA  CLOUDY    74  37  26 W3        30.22F
6HR MIN TEMP:  53; 6HR MAX TEMP:  76;

DAVENPORT IA   SUNNY     74  32  21 VRB6      30.21S
6HR MIN TEMP:  49; 6HR MAX TEMP:  75;

CHICAGO IL     SUNNY     64  31  28 E9        30.24R
6HR MIN TEMP:  51; 6HR MAX TEMP:  64;

EAU CLAIRE WI  SUNNY     69  33  26 VRB7      30.22F
6HR MIN TEMP:  45; 6HR MAX TEMP:  69;

LA CROSSE WI   SUNNY     72  33  24 NW7       30.21S
6HR MIN TEMP:  48; 6HR MAX TEMP:  72;

$$

  *****  SOME NATIONAL WEATHER *****

CITY           SKY/WX    TMP DP  RH WIND       PRES   REMARKS
LA GUARDIA NY  PTSUNNY   74  37  26 W21G31    29.90F
6HR MIN TEMP:  59; 6HR MAX TEMP:  74;

RALEIGH NC     MOSUNNY   70  43  37 VRB3      30.20S
6HR MIN TEMP:  57; 6HR MAX TEMP:  71;

ATLANTA GA     MOSUNNY   73  51  46 VRB7      30.21F
6HR MIN TEMP:  54; 6HR MAX TEMP:  73;

NEW ORLEANS LA MOSUNNY   77  64  64 NE10      30.15F
6HR MIN TEMP:  68; 6HR MAX TEMP:  77;

OKLAHOMA CITY  LGT RAIN  58  56  93 SE12      30.17F
6HR MIN TEMP:  53; 6HR MAX TEMP:  58; 6HR PCP:  0.41;

ALBUQUERQUE NM MOSUNNY   61  45  55 VRB3      30.09F
6HR MIN TEMP:  48; 6HR MAX TEMP:  62;

SALT LAKE CITY CLOUDY    61  43  51 SE6       29.90F
6HR MIN TEMP:  51; 6HR MAX TEMP:  63;



USA.gov is the U.S. government's official web portal to all federal, state and local government web resources and services.